Waarnemingen

Advertentie
Mijn weer
Junsele A, Zweden (2243): temperatuur & dauwpunt: 19.11.2017 02:00:00 - 25.11.2017 02:00:00 (CET)Junsele A, Zweden (2243): windsnelheid & windstoten: 19.11.2017 02:00:00 - 25.11.2017 02:00:00 (CET)Junsele A, Zweden (2243): windrichting: 19.11.2017 02:00:00 - 25.11.2017 02:00:00 (CET)Junsele A, Zweden (2243): luchtdruk: 19.11.2017 02:00:00 - 25.11.2017 02:00:00 (CET)Junsele A, Zweden (2243): zicht: 19.11.2017 02:00:00 - 25.11.2017 02:00:00 (CET)Junsele A, Zweden (2243): neerslag: 19.11.2017 02:00:00 - 25.11.2017 02:00:00 (CET)
Datum & Tijd tt [°C] td [°C] ff [km/u] ff [kn] fx [km/u] fx [kn] dd ppp [hPa] vv [km] rr [mm]
25.11.2017 02:00:00 -4,6 -4,6 4 2 10 5 OZO 997,5 50 0,0
25.11.2017 01:00:00 -3,4 -3,6 4 2 10 5 OZO 997,0 50 0,0
25.11.2017 00:00:00 -3,0 -3,6 4 2 13 7 OZO 996,7 50 0,0
24.11.2017 23:00:00 -2,6 -3,6 7 4 15 8 OZO 996,4 50 0,0
24.11.2017 22:00:00 -2,7 -3,2 6 3 15 8 ZO 996,2 49 0,0
24.11.2017 21:00:00 -2,3 -2,9 6 3 14 8 ZZO 995,9 49 0,0
24.11.2017 20:00:00 -1,5 -2,3 8 4 17 9 ZO 995,3 50 0,0
24.11.2017 19:00:00 -1,2 -2,2 8 4 18 10 ZZO 995,2 50 0,0
24.11.2017 18:00:00 -1,5 -2,2 5 3 14 8 ZO 994,8 50 0,0
24.11.2017 17:00:00 -1,0 -1,7 6 3 16 9 ZO 994,4 50 0,0
24.11.2017 16:00:00 -0,2 -1,4 6 4 14 8 ZZO 993,7 50 0,0
24.11.2017 15:00:00 -0,3 -1,0 6 3 14 8 ZO 993,2 50 0,0
24.11.2017 14:00:00 1,0 -0,2 7 4 21 11 Z 992,7 42 0,0
24.11.2017 13:00:00 0,9 0,2 7 4 19 11 ZZO 992,4 38 0,0
24.11.2017 12:00:00 1,2 0,7 5 3 12 7 ZO 992,2 31 0,0
24.11.2017 11:00:00 0,7 0,7 5 3 13 7 OZO 991,9 28 0,0
24.11.2017 10:00:00 0,2 0,2 7 4 13 7 ZO 991,7 25 0,0
24.11.2017 09:00:00 0,3 0,3 6 3 16 8 ZO 991,2 31 0,0
24.11.2017 08:00:00 0,2 0,2 5 3 13 7 OZO 990,7 33 0,0
24.11.2017 07:00:00 1,3 0,7 7 4 17 9 ZZO 990,0 47 0,0
24.11.2017 06:00:00 1,2 0,7 8 4 18 10 ZZO 989,4 48 0,0
24.11.2017 05:00:00 1,4 1,0 9 5 20 11 ZZO 988,5 50 0,0
24.11.2017 04:00:00 2,1 1,7 9 5 22 12 ZZO 987,6 50 0,0
24.11.2017 03:00:00 3,2 2,9 10 5 26 14 ZZO 986,7 50 0,0
24.11.2017 02:00:00 4,2 4,2 9 5 24 13 ZZO 985,8 50 0,0
24.11.2017 01:00:00 4,5 4,5 10 5 24 13 ZZO 984,9 42 0,0
24.11.2017 00:00:00 4,2 4,2 10 5 28 15 ZO 984,5 9 0,4
23.11.2017 23:00:00 4,1 4,1 12 7 29 15 ZO 984,8 13 0,4
23.11.2017 22:00:00 3,8 3,8 10 6 27 14 ZO 985,0 6 0,2
23.11.2017 21:00:00 3,7 3,7 13 7 29 16 OZO 985,6 3,3 0,2
23.11.2017 20:00:00 3,5 3,5 11 6 25 14 OZO 986,2 2,6 0,0
23.11.2017 19:00:00 3,0 3,0 10 5 20 11 OZO 986,6 2,3 0,0
23.11.2017 18:00:00 2,7 2,7 9 5 22 12 ZO 986,7 2,1 0,0
23.11.2017 17:00:00 2,0 2,0 9 5 21 12 OZO 987,1 3,8 0,1
23.11.2017 16:00:00 1,2 1,2 9 5 26 14 OZO 987,3 12 1,0
23.11.2017 15:00:00 0,3 0,3 12 7 32 18 OZO 987,6 7 2,8
23.11.2017 14:00:00 0,1 0,1 15 8 38 21 OZO 988,3 3,3 1,4
23.11.2017 13:00:00 0,0 0,0 19 10 42 23 OZO 989,5 21 1,1
23.11.2017 12:00:00 -0,1 -0,1 22 12 46 25 OZO 990,3 0,8 1,7
23.11.2017 11:00:00 -0,4 -0,4 20 11 50 27 OZO 991,2 0,8 1,5
23.11.2017 10:00:00 -0,6 -0,6 23 12 57 31 OZO 992,0 0,9 1,2
23.11.2017 09:00:00 -0,7 -0,7 19 10 57 31 OZO 993,4 0,6 1,5
23.11.2017 08:00:00 -0,7 -0,7 25 13 58 31 OZO 994,3 0,5 1,8
23.11.2017 07:00:00 -0,5 -0,5 20 11 56 30 OZO 995,6 0,6 1,8
23.11.2017 06:00:00 -0,4 -0,4 23 12 51 28 OZO 996,7 0,6 1,4
23.11.2017 05:00:00 -0,4 -0,4 17 9 44 24 OZO 998,1 0,7 1,3
23.11.2017 04:00:00 -0,3 -0,3 20 11 48 26 OZO 999,7 0,7 1,1
23.11.2017 03:00:00 -0,3 -0,3 16 8 44 24 OZO 1000,9 0,7 1,2
23.11.2017 02:00:00 -0,5 -0,5 18 10 41 22 OZO 1002,1 0,6 1,2
23.11.2017 01:00:00 -0,6 -0,6 19 10 42 23 OZO 1003,3 0,8 0,3
23.11.2017 00:00:00 -0,6 -0,8 17 9 36 19 OZO 1004,7 2,4 0,3
22.11.2017 23:00:00 -1,0 -1,0 12 7 29 16 OZO 1006,1 1,3 0,3
22.11.2017 22:00:00 -1,1 -1,5 11 6 29 16 OZO 1007,0 23 0,1
22.11.2017 21:00:00 -1,2 -1,2 11 6 30 16 OZO 1008,0 1,0 0,8
22.11.2017 20:00:00 -1,3 -1,4 11 6 29 16 OZO 1008,5 2,4 0,5
22.11.2017 19:00:00 -1,8 -1,9 11 6 23 12 OZO 1009,2 1,9 0,4
22.11.2017 18:00:00 -2,1 -2,5 11 6 28 15 O 1009,6 3,7 0,1
22.11.2017 17:00:00 -2,3 -2,8 10 5 31 17 O 1010,1 9 0,0
22.11.2017 16:00:00 -2,4 -2,9 13 7 35 19 O 1010,8 23 0,0
22.11.2017 15:00:00 -2,4 -3,0 12 6 31 17 O 1011,2 7 0,1
22.11.2017 14:00:00 -2,4 -2,9 12 6 27 15 O 1011,8 9 0,0
22.11.2017 13:00:00 -2,4 -3,0 9 5 25 14 O 1012,1 10 0,0
22.11.2017 12:00:00 -2,6 -3,1 10 5 24 13 O 1012,3 13 0,0
22.11.2017 11:00:00 -2,8 -3,4 10 5 22 12 O 1012,6 19 0,0
22.11.2017 10:00:00 -3,3 -3,9 6 4 18 10 O 1013,0 30 0,0
22.11.2017 09:00:00 -3,8 -4,2 7 4 19 11 O 1012,9 38 0,0
22.11.2017 08:00:00 -4,3 -4,7 5 3 12 7 O 1013,0 36 0,0
22.11.2017 07:00:00 -6,5 -7,3 2 1 11 6 ZZO 1013,2 32 0,0
22.11.2017 06:00:00 -6,9 -7,5 4 2 8 4 ONO 1013,0 29 0,0
22.11.2017 05:00:00 -7,2 -7,9 3 2 8 4 O 1013,2 34 0,0
22.11.2017 04:00:00 -8,3 -9,1 3 2 6 3 O 1013,4 43 0,0
22.11.2017 03:00:00 -8,5 -9,3 3 2 8 5 ONO 1013,5 40 0,0
22.11.2017 02:00:00 -9,1 -10,0 1 1 5 3 O 1013,9 27 0,0
22.11.2017 01:00:00 -9,3 -10,2 3 1 5 3 WNW 1013,8 43 0,0
22.11.2017 00:00:00 -9,8 -10,9 3 2 7 4 WZW 1014,1 28 0,0
21.11.2017 23:00:00 -10,1 -11,1 3 2 9 5 WZW 1014,2 22 0,0
21.11.2017 22:00:00 -10,2 -11,3 3 2 6 4 WZW 1014,1 28 0,0
21.11.2017 21:00:00 -10,4 -11,4 2 1 6 3 W 1014,0 31 0,0
21.11.2017 20:00:00 -10,8 -11,9 2 1 6 3 WZW 1014,0 22 0,0
21.11.2017 19:00:00 -11,2 -12,4 1 1 7 4 WZW 1014,2 26 0,0
21.11.2017 18:00:00 -11,7 -12,9 3 2 7 4 W 1014,2 20 0,0
21.11.2017 17:00:00 -12,1 -13,4 4 2 8 4 WZW 1014,2 8 0,1
21.11.2017 16:00:00 -12,6 -13,9 3 1 11 6 W 1014,2 2,1 0,3
21.11.2017 15:00:00 -13,1 -14,4 3 2 9 5 WZW 1014,1 6 0,1
21.11.2017 14:00:00 -14,0 -15,4 4 2 7 4 WZW 1014,2 6 0,0
21.11.2017 13:00:00 -15,0 -16,6 3 2 8 5 WZW 1014,3 0,8 0,0
21.11.2017 12:00:00 -15,8 -17,5 4 2 10 5 ZW 1014,7 0,5 0,0
21.11.2017 11:00:00 -16,6 -18,4 4 2 10 5 ZW 1014,6 16 0,0
21.11.2017 10:00:00 -17,6 -19,3 4 2 - - W 1014,6 50 0,0
21.11.2017 09:00:00 -19,7 -21,5 3 2 6 3 W 1014,6 43 0,0
21.11.2017 08:00:00 -20,4 -22,2 1 1 5 3 WNW 1014,2 38 0,0
21.11.2017 07:00:00 -20,1 -22,1 4 2 6 4 W 1013,9 40 0,0
21.11.2017 06:00:00 -20,8 -22,6 2 1 8 5 W 1013,6 46 0,0
21.11.2017 05:00:00 -20,8 -22,6 3 2 5 3 WZW 1013,5 31 0,0
21.11.2017 04:00:00 -20,9 -23,2 2 1 4 2 WZW 1013,4 42 0,0
21.11.2017 03:00:00 -20,3 -22,3 1 1 3 1 NW 1013,3 24 0,1
21.11.2017 02:00:00 -20,3 -22,3 2 1 4 2 ZZW 1013,3 19 0,0
21.11.2017 01:00:00 -20,0 -22,0 1 1 3 2 Z 1013,1 29 0,0
21.11.2017 00:00:00 -18,8 -20,6 1 1 3 1 W 1012,9 26 0,0
20.11.2017 23:00:00 -18,7 -20,4 1 1 3 2 ONO 1013,0 34 0,0
20.11.2017 22:00:00 -18,8 -20,6 1 0 2 1 NW 1012,9 23 0,0
20.11.2017 21:00:00 -18,7 -20,2 1 1 3 1 O 1012,6 31 0,0
20.11.2017 20:00:00 -18,2 -20,0 1 1 2 1 ZW 1012,3 26 0,0
20.11.2017 19:00:00 -17,6 -19,4 1 0 5 3 ONO 1012,1 17 0,0
20.11.2017 18:00:00 -16,3 -17,7 2 1 4 2 W 1011,9 11 0,0
20.11.2017 17:00:00 -15,0 -16,4 1 1 5 3 W 1011,8 - 0,0
20.11.2017 16:00:00 -13,6 -14,9 3 1 5 3 WZW 1011,7 15 0,0
20.11.2017 15:00:00 -12,8 -14,2 2 1 6 3 WZW 1011,5 38 0,0
20.11.2017 14:00:00 -10,5 -12,5 3 2 10 5 WNW 1011,3 50 0,0
20.11.2017 13:00:00 -10,3 -12,2 2 1 10 5 NW 1011,2 48 0,0
20.11.2017 12:00:00 -10,7 -12,1 4 2 10 5 W 1011,2 41 0,0
20.11.2017 11:00:00 -11,1 -12,5 3 2 10 6 WNW 1011,1 43 0,0
20.11.2017 10:00:00 -11,2 -12,5 3 2 10 6 W 1011,1 42 0,0
20.11.2017 09:00:00 -9,3 -11,1 4 2 12 7 NW 1010,5 44 0,0
20.11.2017 08:00:00 -8,3 -10,1 4 2 10 6 NW 1010,1 48 0,0
20.11.2017 07:00:00 -8,0 -9,6 3 1 16 9 NNW 1009,5 50 0,0
20.11.2017 06:00:00 -7,8 -9,6 4 2 18 10 N 1009,4 50 0,0
20.11.2017 05:00:00 -7,9 -9,6 5 3 18 10 N 1009,1 50 0,0
20.11.2017 04:00:00 -7,2 -9,0 6 4 23 12 N 1008,8 50 0,0
20.11.2017 03:00:00 -6,4 -8,0 6 3 21 12 NNO 1008,5 44 0,0
20.11.2017 02:00:00 -5,9 -7,6 6 3 17 9 NNO 1008,1 29 0,0
20.11.2017 01:00:00 -5,6 -7,3 6 4 20 11 N 1008,0 43 0,1
20.11.2017 00:00:00 -5,2 -6,9 6 3 19 10 N 1007,9 14 0,0
19.11.2017 23:00:00 -4,9 -6,3 4 2 19 10 NNW 1007,7 50 0,0
19.11.2017 22:00:00 -4,7 -6,3 4 2 16 9 N 1007,3 44 0,0
19.11.2017 21:00:00 -4,8 -6,1 5 3 11 6 N 1007,0 42 0,0
19.11.2017 20:00:00 -4,9 -6,0 4 2 15 8 N 1006,6 8 0,0
19.11.2017 19:00:00 -4,9 -6,2 5 3 16 8 N 1006,4 33 0,0
19.11.2017 18:00:00 -5,0 -6,3 6 3 18 10 N 1006,1 28 0,0
19.11.2017 17:00:00 -4,6 -5,9 5 3 19 11 N 1005,7 24 0,0
19.11.2017 16:00:00 -4,3 -5,7 6 3 18 10 N 1005,3 25 0,1
19.11.2017 15:00:00 -4,3 -5,7 7 4 21 11 N 1005,0 26 0,0
19.11.2017 14:00:00 -4,2 -4,9 5 3 16 9 NW 1004,6 5 0,5
19.11.2017 13:00:00 -4,1 -4,8 6 3 21 11 NNW 1004,3 1,3 0,6
19.11.2017 12:00:00 -4,1 -5,3 6 3 21 12 NNW 1003,9 28 0,0
19.11.2017 11:00:00 -4,3 -5,4 5 3 18 10 NNW 1003,6 17 0,0
19.11.2017 10:00:00 -4,6 -5,7 5 3 18 10 N 1003,1 16 0,0
19.11.2017 09:00:00 -4,9 -5,8 7 4 24 13 N 1002,3 15 0,0
19.11.2017 08:00:00 -5,0 -6,1 7 4 26 14 N 1001,4 35 0,0
19.11.2017 07:00:00 -5,2 -6,3 5 3 18 10 N 1001,0 37 0,0
19.11.2017 06:00:00 -5,1 -6,1 4 2 15 8 NNW 1001,0 26 0,0
19.11.2017 05:00:00 -5,3 -6,3 4 2 16 9 NNW 1000,5 24 0,0
19.11.2017 04:00:00 -5,5 -6,5 5 3 21 11 N 1000,4 30 0,0
19.11.2017 03:00:00 -5,8 -6,8 5 3 18 10 NNW 1000,2 36 0,0
19.11.2017 02:00:00 -6,3 -7,4 4 2 16 9 NNW 1000,1 23 0,0

tt = temperatuur
td = dauwpunt
ff = windsnelheid
fx = windstoten
dd = windrichting
ppp = luchtdruk
vv = zicht
rr = neerslag

Weerstations in de omgeving